Weather History for Charlottesville, VA

Change the Weather History Date:

Tuesday, February 5, 2013

  Actual Average Record
Temperature  
Mean Temperature 43 °F 36 °F  
Max Temperature 57 °F 46 °F 75 °F (2008)
Min Temperature 29 °F 27 °F 0 °F (1917)
Degree Days  
Heating Degree Days 22 28  
Month to date heating degree days 170 144  
Since 1 July heating degree days 2454 2804  
Cooling Degree Days 0 0  
Month to date cooling degree days 0 0  
Year to date cooling degree days 0 0  
Moisture  
Dew Point 26 °F    
Average Humidity 50    
Maximum Humidity 64    
Minimum Humidity 35    
Precipitation  
Precipitation 0.00 in 0.08 in 1.60 in (2010)
Month to date precipitation 0.01 0.38  
Year to date precipitation 5.06 3.15  
Sea Level Pressure  
Sea Level Pressure 29.87 in    
Wind  
Wind Speed 7 mph (SSW)    
Max Wind Speed 14 mph    
Max Gust Speed 22 mph    
Visibility 10 miles    
Events      
T = Trace of Precipitation, MM = Missing Value Source: NWS Daily Summary

Daily Weather History Graph

Daily Weather History Graph

Search for Another Location

Airport:

Trip Planner

Search our weather history database for the weather conditions in past years. The results will help you decide how hot, cold, wet, or windy it might be!

Date:

Astronomy

Feb. 05, 2013 Rise Set
Actual Time 7:14 AM EST 5:41 PM EST
Civil Twilight 6:47 AM EST 6:09 PM EST
Nautical Twilight 6:15 AM EST 6:40 PM EST
Astronomical Twilight 5:44 AM EST 7:11 PM EST
Moon 2:52 AM EST (2/5) 12:59 PM EST (2/5)
Length of Visible Light 11h 22m
Length of Day
10h 26m
Waning Crescent, 27% of the Moon is Illuminated
Feb 5
Waning Crescent
Feb 10
New
Feb 17
First Quarter
Feb 25
Full
Mar 4
Last Quarter

Hourly Weather History & Observations

Time (EST) Temp. Windchill Dew Point Humidity Pressure Visibility Wind Dir Wind Speed Gust Speed Precip Events Conditions
12:53 AM 32.0 °F 24.8 °F 19.0 °F 59% 29.88 in 10.0 mi South 8.1 mph - N/A   Clear
1:53 AM 32.0 °F 26.4 °F 19.9 °F 61% 29.88 in 10.0 mi South 5.8 mph - N/A   Mostly Cloudy
2:53 AM 33.1 °F 24.9 °F 19.9 °F 59% 29.87 in 10.0 mi South 10.4 mph - N/A   Partly Cloudy
3:53 AM 34.0 °F 26.6 °F 21.0 °F 59% 29.85 in 10.0 mi South 9.2 mph - N/A   Scattered Clouds
4:53 AM 32.0 °F 25.6 °F 21.9 °F 66% 29.85 in 10.0 mi SSW 6.9 mph - N/A   Clear
5:53 AM 34.0 °F 27.2 °F 23.0 °F 64% 29.86 in 10.0 mi South 8.1 mph - N/A   Clear
6:53 AM 35.1 °F 29.3 °F 23.0 °F 61% 29.87 in 10.0 mi SSW 6.9 mph - N/A   Scattered Clouds
7:53 AM 36.0 °F 28.5 °F 24.1 °F 62% 29.88 in 10.0 mi SSW 10.4 mph - N/A   Scattered Clouds
8:53 AM 37.0 °F - 25.0 °F 62% 29.89 in 10.0 mi Calm Calm - N/A   Mostly Cloudy
9:53 AM 39.9 °F 35.8 °F 26.1 °F 58% 29.89 in 10.0 mi SSW 5.8 mph - N/A   Overcast
11:53 AM 48.9 °F - 28.0 °F 44% 29.88 in 10.0 mi South 10.4 mph - N/A   Clear
12:53 PM 53.1 °F - 28.9 °F 40% 29.83 in 10.0 mi Variable 4.6 mph - N/A   Clear
1:53 PM 55.9 °F - 28.9 °F 36% 29.81 in 10.0 mi WSW 9.2 mph - N/A   Partly Cloudy
2:53 PM 54.0 °F - 28.9 °F 38% 29.82 in 10.0 mi SW 9.2 mph 20.7 mph N/A   Mostly Cloudy
3:53 PM 52.0 °F - 30.0 °F 43% 29.84 in 10.0 mi Variable 5.8 mph 20.7 mph N/A   Mostly Cloudy
4:53 PM 51.1 °F - 28.9 °F 43% 29.85 in 10.0 mi SW 6.9 mph - N/A   Clear
5:53 PM 50.0 °F - 28.9 °F 44% 29.86 in 10.0 mi West 13.8 mph - N/A   Mostly Cloudy
6:53 PM 48.0 °F - 28.9 °F 48% 29.86 in 10.0 mi WSW 9.2 mph - N/A   Scattered Clouds
7:53 PM 44.1 °F 39.0 °F 28.9 °F 55% 29.88 in 10.0 mi WSW 9.2 mph - N/A   Clear
8:53 PM 44.1 °F 39.0 °F 28.9 °F 55% 29.88 in 10.0 mi SW 9.2 mph - N/A   Clear
9:53 PM 44.1 °F 40.1 °F 28.9 °F 55% 29.90 in 10.0 mi SW 6.9 mph - N/A   Clear
10:53 PM 42.1 °F - 28.9 °F 60% 29.90 in 10.0 mi Calm Calm - N/A   Mostly Cloudy
11:53 PM 39.0 °F - 28.9 °F 67% 29.91 in 10.0 mi Calm Calm - N/A   Mostly Cloudy